This demonstration page uses our WeatherBlox Daily Observations layout. Learn more.

Left ArrowRight Arrow

39.95238, -75.16362

Hourly Observations for May 27, 2018

Temp ( °F °C ) Dew Point ( °F °C ) Humidity (%) Winds ( mph kmh ) Pressure ( in mb ) Visibility ( mi km ) Precip ( " mm )
12:54 am 00:54 Cloudy with Light Rain 77 25 71 21.7 82 82 SW 10 17 29.88 1012 10 16 0.00 0.03
1:54 am 01:54 Cloudy 76 24.4 72 22.2 88 88 SW 6 9 29.87 1011 10 16 0.00 0.03
2:54 am 02:54 Cloudy 75 23.9 70 21.1 84 84 SSW 7 11 29.86 1011 10 16 0.00 0.00
3:54 am 03:54 Mostly Cloudy 75 23.9 69 20.6 82 82 SSW 7 11 29.86 1011 10 16 0.00 0.00
4:54 am 04:54 Cloudy 73 22.8 69 20.6 87 87 SSW 5 7 29.86 1011 10 16 0.00 0.03
4:58 am 04:58 Cloudy with Thunderstorms 73 22.8 69 20.6 87 87 SSW 5 7 29.85 1011 10 16 0.00 0.00
5:16 am 05:16 Mostly Cloudy 74 23.3 69 20.6 85 85 SW 7 11 29.85 1011 10 16 0.00 0.00
5:54 am 05:54 Mostly Cloudy 73 22.8 69 20.6 87 87 SSW 6 9 29.86 1011 10 16 0.00 0.00
6:07 am 06:07 Mostly Cloudy 73 22.8 69 20.6 87 87 SSW 6 9 29.88 1012 10 16 0.00 0.00
6:11 am 06:11 Mostly Cloudy 73 22.8 69 20.6 87 87 SSW 6 9 29.88 1012 10 16 0.00 0.00
6:42 am 06:42 Cloudy 73 22.8 69 20.6 87 87 SSE 3 6 29.91 1013 10 16 0.00 0.00
6:54 am 06:54 Cloudy 73 22.8 69 20.6 87 87 SSE 5 7 29.91 1013 10 16 0.00 0.00
7:54 am 07:54 Mostly Cloudy 74 23.3 71 21.7 91 91 SW 5 7 29.91 1013 10 16 0.00 0.03
8:28 am 08:28 Mostly Cloudy 75 23.9 71 21.7 88 88 WSW 6 9 29.91 1013 10 16 0.00 0.00
8:43 am 08:43 Cloudy 71 21.7 67 19.4 87 87 NNE 15 24 29.94 1014 10 16 0.00 0.00
8:54 am 08:54 Cloudy 68 20 65 18.3 90 90 NE 12 19 29.93 1014 10 16 0.00 0.00
9:23 am 09:23 Cloudy with Heavy Rain 68 20 64 17.8 87 87 NE 15 24 29.94 1014 8 13 0.00 0.03
9:33 am 09:33 Cloudy with Heavy Rain 67 19.4 65 18.3 93 93 NE 10 17 29.94 1014 6 10 0.02 0.51
9:42 am 09:42 Cloudy with Heavy Rain 67 19.4 65 18.3 93 93 NE 10 17 29.94 1014 7 11 0.04 1.02
9:54 am 09:54 Cloudy with Light Rain 66 18.9 65 18.3 96 96 NE 9 15 29.95 1014 10 16 0.07 1.78
10:54 am 10:54 Mostly Cloudy 69 20.6 66 18.9 90 90 ENE 15 24 29.96 1015 10 16 0.00 0.03
11:54 am 11:54 Cloudy 69 20.6 65 18.3 87 87 ENE 9 15 29.97 1015 10 16 0.00 0.00
12:34 pm 12:34 Cloudy 68 20 64 17.8 87 87 NNE 13 20 30.00 1016 10 16 0.00 0.00
12:54 pm 12:54 Cloudy 68 20 64 17.8 87 87 NE 13 20 29.98 1015 10 16 0.00 0.00
1:54 pm 13:54 Cloudy 69 20.6 64 17.8 84 84 NE 13 20 29.98 1015 10 16 0.00 0.00
2:54 pm 14:54 Cloudy 67 19.4 63 17.2 87 87 ENE 13 20 29.98 1015 10 16 0.00 0.00
3:30 pm 15:30 Cloudy 65 18.3 62 16.7 90 90 ENE 13 20 29.97 1015 10 16 0.00 0.00
3:54 pm 15:54 Cloudy 64 17.8 61 16.1 90 90 ENE 12 19 29.98 1015 10 16 0.00 0.00
4:54 pm 16:54 Cloudy 62 16.7 59 15 90 90 E 12 19 30.01 1016 10 16 0.00 0.00
5:54 pm 17:54 Cloudy with Light Rain 62 16.7 60 15.6 93 93 E 14 22 29.99 1016 10 16 0.00 0.03
6:54 pm 18:54 Cloudy with Light Rain 62 16.7 59 15 90 90 E 13 20 30.02 1017 10 16 0.01 0.25
7:23 pm 19:23 Cloudy with Light Rain 61 16.1 58 14.4 90 90 E 15 24 30.03 1017 10 16 0.00 0.03
7:54 pm 19:54 Cloudy with Light Rain 60 15.6 58 14.4 93 93 ENE 13 20 30.04 1017 10 16 0.00 0.03
8:54 pm 20:54 Cloudy with Light Rain 60 15.6 57 13.9 90 90 E 12 19 30.04 1017 10 16 0.00 0.03
9:54 pm 21:54 Cloudy 60 15.6 57 13.9 90 90 E 12 19 30.06 1018 10 16 0.00 0.03
10:24 pm 22:24 Cloudy 60 15.6 57 13.9 90 90 E 9 15 30.09 1019 10 16 0.00 0.00
10:54 pm 22:54 Cloudy 59 15 57 13.9 93 93 ENE 8 13 30.09 1019 10 16 0.00 0.00
11:54 pm 23:54 Cloudy 58 14.4 57 13.9 97 97 E 10 17 30.10 1019 10 16 0.00 0.00

Powered by AerisWeather